User: anonymous   Login
Location: Camp Creek
(33.9000°N, 111.8167°W)
Time: 21:32:51
(UTC-07:00)
Language:

DELTA 2 R/B (1) - Orbit

View from above orbital plane
View from above orbital plane
View from above satellite
View from above satellite

Ground track
Ground track

The orbit data is extracted from the following two-line orbital elements,

1 27665U 03005C   17055.85153663  .00000005  00000-0  35733-4 0  9999
2 27665  39.5767 322.2544 0010047 256.8443 217.8338 14.28435081734867
Epoch (UTC): 24 February 2017 20:26:12
Eccentricity: 0.0010047
inclination: 39.5767°
perigee height: 790 km
apogee height: 804 km
right ascension of ascending node: 322.2544°
argument of perigee: 256.8443°
revolutions per day: 14.28435081
mean anomaly at epoch: 217.8338°
orbit number at epoch: 73486

The dashed part of the orbit path shows where the satellite is in the earth's shadow,  

DLR